Location: Oshawa
(43.9000°N, 78.8670°W)
Time: 23:43:13
(UTC-04:00)

Cosmos 1500 - Visible Passes

Search period start: 31 July 2014 00:00
Search period end: 10 August 2014 00:00
Orbit: 518 x 545 km, 82.5° (Epoch: 31 July)

Date Brightness Start Highest point End Pass type
(mag) Time Alt. Az. Time Alt. Az. Time Alt. Az.
31 Jul 4.7 01:25:04 36° NNW 01:25:04 36° NNW 01:27:34 10° N visible
01 Aug 4.7 01:15:06 35° NNW 01:15:06 35° NNW 01:17:33 10° N visible
02 Aug 4.8 01:05:08 35° N 01:05:08 35° N 01:07:31 10° N visible
03 Aug 4.8 00:55:08 34° N 00:55:08 34° N 00:57:28 10° N visible
04 Aug 4.8 00:45:07 34° N 00:45:07 34° N 00:47:25 10° N visible
05 Aug 4.8 00:35:06 34° N 00:35:06 34° N 00:37:22 10° N visible
06 Aug 4.8 00:25:03 34° N 00:25:03 34° N 00:27:19 10° N visible
07 Aug 4.8 00:15:00 33° N 00:15:00 33° N 00:17:15 10° N visible
08 Aug 4.7 00:04:56 33° NNE 00:04:56 33° NNE 00:07:10 10° N visible
08 Aug 4.7 23:54:50 34° NNE 23:54:50 34° NNE 23:57:06 10° N visible
09 Aug 4.6 23:44:44 34° NNE 23:44:44 34° NNE 23:47:00 10° NNE visible
